This is the latest recevied weather packets stored in our database for station/object N8RJC-13. If no packets are shown the sender has not sent any weather packets the latest 1 day(s).
| Time | Temp. | Humidity | Pressure | Rain* | Wind** | Luminosity | Snow |
|---|---|---|---|---|---|---|---|
| 1778080041 | 11.67° C | 70% | 989.5 hPa | 0 mm | 0.89 m/s, 30° | - | - |
| 1778079981 | 11.67° C | 70% | 989.5 hPa | 0 mm | 0.89 m/s, 30° | - | - |
| 1778079921 | 11.67° C | 70% | 989.4 hPa | 0 mm | 2.24 m/s, 346° | - | - |
| 1778079801 | 11.67° C | 70% | 989.4 hPa | 0 mm | 2.24 m/s, 346° | - | - |
| 1778079681 | 11.67° C | 70% | 989.4 hPa | 0 mm | 2.24 m/s, 346° | - | - |
| 1778079621 | 11.11° C | 72% | 989.1 hPa | 0 mm | 1.79 m/s, 334° | - | - |
| 1778079561 | 11.11° C | 72% | 989.1 hPa | 0 mm | 1.79 m/s, 334° | - | - |
| 1778079261 | 11.11° C | 74% | 989.1 hPa | 0 mm | 2.24 m/s, 18° | - | - |
| 1778079201 | 11.11° C | 74% | 989.1 hPa | 0 mm | 2.24 m/s, 18° | - | - |
| 1778079081 | 11.11° C | 74% | 989.1 hPa | 0 mm | 2.24 m/s, 18° | - | - |
| 1778078901 | 10.56° C | 75% | 989.3 hPa | 0 mm | 1.79 m/s, 50° | - | - |
| 1778078781 | 10.56° C | 75% | 989.3 hPa | 0 mm | 1.79 m/s, 50° | - | - |
| 1778078721 | 10.56° C | 75% | 989.1 hPa | 0 mm | 1.79 m/s, 13° | - | - |
| 1778078601 | 10.56° C | 75% | 989.1 hPa | 0 mm | 1.79 m/s, 13° | - | - |
| 1778078541 | 10.56° C | 75% | 989.1 hPa | 0 mm | 1.79 m/s, 13° | - | - |
| 1778078361 | 10.56° C | 77% | 989.1 hPa | 0 mm | 1.34 m/s, 17° | - | - |
| 1778078301 | 10.56° C | 77% | 989.1 hPa | 0 mm | 1.34 m/s, 17° | - | - |
| 1778078241 | 10.56° C | 77% | 989.1 hPa | 0 mm | 1.34 m/s, 17° | - | - |
| 1778078181 | 10.56° C | 77% | 989.1 hPa | 0 mm | 1.34 m/s, 17° | - | - |
| 1778078121 | 10.56° C | 80% | 988.7 hPa | 0 mm | 0.89 m/s, 61° | - | - |
| 1778077941 | 10.56° C | 80% | 988.7 hPa | 0 mm | 0.89 m/s, 61° | - | - |
| 1778077881 | 10.56° C | 80% | 988.7 hPa | 0 mm | 0.89 m/s, 61° | - | - |
| 1778077821 | 10.56° C | 79% | 989.2 hPa | 0 mm | 1.34 m/s, 35° | - | - |
| 1778077761 | 10.56° C | 79% | 989.2 hPa | 0 mm | 1.34 m/s, 35° | - | - |
| 1778077701 | 10.56° C | 79% | 989.2 hPa | 0 mm | 1.34 m/s, 35° | - | - |
* Rain latest hour (hover to see other rain measurements)
** Current wind speed in m/s (hover to see current wind gust speed)